Victoria, British Columbia

11:54 AM PST on February 24, 2017 (GMT -0800)
Victoria International

Weather History for CYYJ - October, 2013

Change the Weather History Date:

Monday, October 14, 2013

  Actual Average Record
Temperature  
Mean Temperature 46 °F -  
Max Temperature 56 °F 53 °F 66 °F (2004)
Min Temperature 37 °F 39 °F 37 °F (2008)
Degree Days  
Heating Degree Days 18    
Moisture  
Dew Point 44 °F    
Average Humidity 91    
Maximum Humidity 100    
Minimum Humidity 72    
Precipitation  
Precipitation 0.00 in 0.14 in - ()
Sea Level Pressure  
Sea Level Pressure 30.42 in    
Wind  
Wind Speed 4 mph ()    
Max Wind Speed 6 mph    
Max Gust Speed -    
Visibility 16.9 miles    
Events Fog    
Averages and records for this station are not official NWS values.
T = Trace of Precipitation, MM = Missing Value Source: Averaged Metar Reports

Daily Weather History Graph

Daily Weather History Graph

Search for Another Location

Airport or City:

Trip Planner

Search our weather history database for the weather conditions in past years. The results will help you decide how hot, cold, wet, or windy it might be!

Date:

Astronomy

Oct. 14, 2013 Rise Set
Actual Time 7:32 AM PDT 6:25 PM PDT
Civil Twilight 7:01 AM PDT 6:57 PM PDT
Nautical Twilight 6:24 AM PDT 7:33 PM PDT
Astronomical Twilight 5:48 AM PDT 8:09 PM PDT
Moon 4:16 PM PDT (10/14) 2:34 AM PDT (10/14)
Length of Visible Light 11h 56m
Length of Day
10h 52m
Waxing Gibbous, 80% of the Moon is Illuminated
Oct 14
Waxing Gibbous
Oct 18
Full
Oct 26
Last Quarter
Nov 3
New
Nov 9
First Quarter

Hourly Weather History & Observations

Time (PDT) Temp. Windchill Dew Point Humidity Pressure Visibility Wind Dir Wind Speed Gust Speed Precip Events Conditions
12:00 AM 42.8 °F 41.1 °F 41.0 °F 93% 30.39 in 30.0 mi WSW 3.5 mph - N/A   Clear
1:00 AM 41.0 °F 37.1 °F 41.0 °F 100% 30.39 in 30.0 mi WSW 5.8 mph - N/A   Clear
2:00 AM 41.0 °F 37.1 °F 41.0 °F 100% 30.40 in 30.0 mi WSW 5.8 mph - N/A   Clear
3:00 AM 42.8 °F 39.3 °F 42.8 °F 100% 30.40 in 30.0 mi West 5.8 mph - N/A   Clear
4:00 AM 39.2 °F 35.9 °F 37.4 °F 93% 30.40 in 30.0 mi West 4.6 mph - N/A   Clear
5:00 AM 38 °F - 38 °F 100% 30.41 in 15 mi West 4.6 mph - -  
5:00 AM 39.2 °F 35.9 °F 37.4 °F 93% 30.41 in 15.0 mi West 4.6 mph - N/A   Clear
6:00 AM 41.0 °F 38.0 °F 41.0 °F 100% 30.42 in 15.0 mi West 4.6 mph - N/A   Clear
7:00 AM 39.2 °F 35.9 °F 39.2 °F 100% 30.43 in 15.0 mi West 4.6 mph - N/A Fog Shallow Fog
7:24 AM 39.2 °F 35.0 °F 39.2 °F 100% 30.43 in 20.0 mi West 5.8 mph - N/A   Partly Cloudy
8:00 AM 41.0 °F 38.0 °F 41.0 °F 100% 30.44 in 15.0 mi West 4.6 mph - N/A   Partly Cloudy
8:28 AM 42.8 °F 40.1 °F 42.8 °F 100% 30.44 in 12.0 mi WSW 4.6 mph - N/A   Mostly Cloudy
9:00 AM 46.4 °F 44.3 °F 44.6 °F 93% 30.45 in 15.0 mi West 4.6 mph - N/A   Mostly Cloudy
10:00 AM 48.2 °F - 46.4 °F 93% 30.45 in 15.0 mi West 5.8 mph - N/A   Mostly Cloudy
11:00 AM 50 °F - 46 °F 81% 30.46 in 19 mi WNW 3.5 mph - -   Mostly Cloudy
11:00 AM 50.0 °F - 46.4 °F 87% 30.46 in 20.0 mi West 3.5 mph - N/A   Mostly Cloudy
12:00 PM 53.6 °F - 48.2 °F 82% 30.45 in 20.0 mi Calm Calm - N/A   Mostly Cloudy
1:00 PM 55.4 °F - 48.2 °F 77% 30.45 in 20.0 mi East 5.8 mph - N/A   Partly Cloudy
2:00 PM 55.4 °F - 48.2 °F 77% 30.43 in 20.0 mi East 4.6 mph - N/A   Partly Cloudy
3:00 PM 55.4 °F - 48.2 °F 77% 30.41 in 30.0 mi ENE 4.6 mph - N/A   Partly Cloudy
4:00 PM 55.4 °F - 48.2 °F 77% 30.40 in 30.0 mi East 4.6 mph - N/A   Partly Cloudy
5:00 PM 54 °F - 48 °F 72% 30.40 in 28 mi East 5.8 mph - -   Clear
5:00 PM 53.6 °F - 48.2 °F 82% 30.40 in 30.0 mi East 4.6 mph - N/A   Partly Cloudy
6:00 PM 51.8 °F - 48.2 °F 88% 30.40 in 30.0 mi East 5.8 mph - N/A   Partly Cloudy
7:00 PM 48.2 °F - 46.4 °F 93% 30.40 in 30.0 mi SE 2.3 mph - N/A   Partly Cloudy
8:00 PM 46.4 °F - 44.6 °F 93% 30.40 in 30.0 mi Calm Calm - N/A   Clear
9:00 PM 44.6 °F - 42.8 °F 93% 30.40 in 30.0 mi Variable 2.3 mph - N/A   Clear
10:00 PM 44.6 °F - 42.8 °F 93% 30.41 in 30.0 mi WSW 2.3 mph - N/A   Clear
11:00 PM 43 °F - 43 °F 98% 30.42 in 28 mi WSW 3.5 mph - -  
11:00 PM 42.8 °F 41.1 °F 42.8 °F 100% 30.41 in 30.0 mi SW 3.5 mph - N/A   Clear